RJFMRJOM

Guest
Details From RJFM - MIYAZAKI
To RJOM - MATSUYAMA
Flight Number -
Tags generated
Created
Modified
Stats Distance 133 nm / 247 km
Max Altitude 6,500 ft / 1,981 m
Waypoints 3
Social Downloads 0
Likes 0
Share VATSIM

Download

Looking for another format? Having issues loading an existing format? Contact us
Advertisement - Login to hide

Notes

Basic altitude profile: - Ascent Rate: 2500ft/min - Ascent Speed: 250kts - Cruise Altitude: 35000ft - Cruise Speed: 420kts - Descent Rate: 1500ft/min - Descent Speed: 250kts Options: - Use NATs: yes - Use PACOTS: yes - Use low airways: yes - Use high airways: yes

Route

RJFM DONAR RJOM

ID Type Via Altitude Latitude Longitude Leg Dist Tot Dist Heading (true) Name
O RJFM APT - 0 ft / 0 m 31.87713˚ 131.44845˚ - 0 nm - MIYAZAKI
DONAR FIX - 6,500 ft / 1,981 m 33.35143˚ 132.48464˚ 102 nm 102 nm 30° / 31° -
O RJOM APT - 0 ft / 0 m 33.82726˚ 132.69963˚ 30 nm 133 nm 21° / 21° MATSUYAMA

Altitude Profile

Advertisement - Login to hide

RJFM

Details ICAO RJFM (KMI)
Name MIYAZAKI
Region Japan
Timezone Asia/Tokyo (UTC+9.0)
Stats Elevation 20 ft / 6 m (AMSL)
Location 31.877128° 131.448447°
Runways 1
Magnetic Variation 6.966° W

METAR

RJFM 201200Z 03017KT 9999 VCSH FEW018 SCT035 BKN100 20/18 Q1016

Decode

TAF

TAF TAF RJFM 201107Z 2012/2118 05022KT 7000 -SHRA FEW005 SCT010 BKN020 TEMPO 2012/2018 3000 SHRA BR FEW004 BKN008 BKN012 TEMPO 2018/2021 05027G37KT 4000 -SHRA BR TEMPO 2021/2100 05027G37KT TEMPO 2106/2112 4000 -SHRA BR TEMPO 2112/2118 3000 SHRA BR FEW004 BKN008 BKN012

Decode

Departure Runways

ID Width Length Bearing (true) Bearing (mag) Surface Threshold Offset Overrun Length
09 150 ft / 46 m 8,187 ft / 2,496 m 85.16° 92.13° Asphalt 0 ft / 0 m 200 ft / 61 m
27 150 ft / 46 m 8,187 ft / 2,496 m 265.18° 272.15° Asphalt 0 ft / 0 m 200 ft / 61 m

RJOM

Details ICAO RJOM (MYJ)
Name MATSUYAMA
Region Japan
Timezone Asia/Tokyo (UTC+9.0)
Stats Elevation 25 ft / 8 m (AMSL)
Location 33.827257° 132.699631°
Runways 1
Magnetic Variation 7.545° W

METAR

RJOM 201200Z 36003KT 320V040 9999 FEW030 BKN180 18/12 Q1018

Decode

TAF

TAF RJOM 201108Z 2012/2118 24004KT 9999 FEW030 BKN050 BECMG 2012/2014 12007KT BECMG 2100/2103 35010KT BECMG 2106/2109 13011KT

Decode

Destination Runways

ID Width Length Bearing (true) Bearing (mag) Surface Threshold Offset Overrun Length
14 150 ft / 46 m 8,203 ft / 2,500 m 130.67° 138.21° Asphalt 0 ft / 0 m 206 ft / 63 m
32 150 ft / 46 m 8,203 ft / 2,500 m 310.68° 318.22° Asphalt 0 ft / 0 m 195 ft / 59 m